Погода в Ясном

Россия / Приморский край     43°41′15″N   133°57′29″E
темп.,
°C
ветер,
м/с
пор.,
м/с
влажн.,
%
обл.,
%
осадки,
мм/ч
давл.,
гПа
погр.,
м
26 июня, вс
вс2601:00+14юз119898 0.1 100020
04:00+13з119815 0.1 100213
07:00+15ю129811 0.0 100478
10:00+19юз2476100 0.1 1004464
13:00+24юз365472 0.2 10031711
16:00+21сз24858 2.3 1003566
19:00+19сз12953 1.9 1005277
22:00+15сз119821 2.4 100711
27 июня, пн
пн2701:00+14зсз119928 0.0 100811
04:00+14ссв009949 0.0 100913
07:00+15зсз1197100 0.0 101050
10:00+21ссз126485 0.0 1009650
13:00+26сз244634 0.0 10081815
16:00+23ююз2465100 0.0 1007290
19:00+23ююв2371100 0.0 1007135
22:00+17ююв2293100 0.1 100824
28 июня, вт
вт2801:00+16ююв2296100 0.0 100737
04:00+16ююв2293100 0.1 100667
07:00+16юв2399100 1.8 1005110
10:00+17юв2499100 6.3 1003220
13:00+16ююв2499100 5.2 1001214
16:00+16ююв24100100 6.3 999181
19:00+16ююв2499100 0.1 998223
22:00+16ююв2499100 0.1 999191
29 июня, ср
ср2901:00+16ю23100100 0.1 998167
04:00+17ю25100100 0.6 998206
07:00+18ююв2399100 0.0 999149
10:00+20ююз2491100 0.0 998383
13:00+27юз595438 0.2 9981632
16:00+22сз468584 1.1 999683
19:00+19ссз239898 1.0 1002282
22:00+16ссз119954 1.1 100553
30 июня, чт
чт3001:00+14ссв0098100 0.0 100611
04:00+14ссв1198100 0.0 100615
07:00+15всв0096100 0.0 100844
10:00+23ююв0155100 0.0 1008644
13:00+27зсз1244100 0.0 10071551
16:00+27юз2350100 0.1 10061805
19:00+21ю2293100 1.3 100846
22:00+17ю2398100 2.6 101070